Total_Precipitation_Accumulation
0.16 0.15 0.15 0.15 0.14 0.12 0.12 0.14 0.13 0.11 0.10 0.11 0.09 0.07 0.07 0.07 0.05 0.06 0.06 0.07 0.05 0.04 0.06 0.04 0.05 0.05 0.14 0.07 0.03 0.20 0.23 0.19 0.04 0.02 0.02 0.20 0.10 0.07 0.02 0.04 0.04 0.00 0.01 0.01 0.01 0.01 0.01 0.02 0.02 0.01 0.02 0.00 0.00 0.01 0.00 0.00 0.01 0.00 0.01 0.02 0.11 0.19 0.24 0.23 0.31 0.22 0.47 0.61 0.39 0.77 0.59 0.57 0.46 0.54 0.77 0.60 0.89 0.68 0.63 0.81 0.65 0.60 0.69 0.85 1.08 2.34 2.30 1.97
0.16 0.15 0.16 0.15 0.15 0.14 0.13 0.12 0.12 0.13 0.10 0.10 0.11 0.10 0.09 0.07 0.09 0.04 0.05 0.05 0.07 0.05 0.04 0.09 0.04 0.02 0.10 0.10 0.04 0.14 0.22 0.28 0.10 0.02 0.08 0.15 0.11 0.12 0.06 0.01 0.05 0.02 0.00 0.01 0.03 0.04 0.00 0.07 0.02 0.01 0.02 0.03 0.00 0.02 0.00 0.01 0.00 0.01 0.02 0.14 0.27 0.20 0.25 0.07 0.19 0.10 0.27 0.43 0.42 0.19 0.54 0.64 0.68 0.37 0.79 0.58 0.60 0.79 0.58 0.82 0.58 0.82 0.95 0.98 1.36 2.05 1.91 2.11
0.15 0.15 0.16 0.14 0.15 0.14 0.13 0.12 0.11 0.11 0.10 0.09 0.09 0.10 0.08 0.06 0.06 0.06 0.04 0.06 0.05 0.04 0.04 0.04 0.06 0.04 0.02 0.09 0.07 0.14 0.08 0.13 0.12 0.10 0.03 0.05 0.12 0.14 0.03 0.03 0.03 0.06 0.05 0.00 0.01 0.02 0.03 0.05 0.04 0.04 0.04 0.03 0.03 0.09 0.00 0.03 0.01 0.01 0.09 0.36 0.48 0.29 0.23 0.14 0.21 0.27 0.34 0.38 0.33 0.23 0.35 0.72 0.82 0.72 0.58 0.92 0.56 0.80 0.74 0.99 0.76 1.14 1.35 1.25 1.28 2.22 1.72 1.68
0.12 0.13 0.12 0.14 0.14 0.13 0.12 0.09 0.11 0.10 0.10 0.12 0.10 0.09 0.08 0.08 0.06 0.06 0.06 0.06 0.04 0.04 0.05 0.04 0.08 0.04 0.06 0.07 0.06 0.13 0.08 0.07 0.13 0.10 0.00 0.01 0.06 0.07 0.03 0.01 0.01 0.02 0.02 0.01 0.00 0.01 0.05 0.04 0.05 0.04 0.07 0.03 0.04 0.06 0.02 0.01 0.07 0.02 0.19 0.43 0.33 0.15 0.30 0.18 0.13 0.10 0.15 0.21 0.38 0.53 0.92 0.39 0.72 0.66 0.91 0.55 0.76 0.56 0.75 0.68 1.01 1.10 1.19 1.35 1.53 2.00 2.18 2.39
0.13 0.13 0.14 0.11 0.13 0.13 0.12 0.12 0.11 0.13 0.13 0.11 0.10 0.10 0.09 0.06 0.07 0.06 0.06 0.04 0.05 0.03 0.05 0.03 0.08 0.05 0.03 0.07 0.06 0.08 0.22 0.02 0.10 0.05 0.00 0.03 0.06 0.03 0.00 0.02 0.01 0.02 0.02 0.01 0.01 0.01 0.03 0.06 0.08 0.04 0.11 0.11 0.04 0.01 0.04 0.02 0.09 0.13 0.12 0.17 0.16 0.26 0.21 0.27 0.17 0.15 0.17 0.33 0.21 0.75 0.67 0.49 0.85 0.39 0.95 1.23 0.67 1.03 1.07 1.05 1.00 1.05 1.25 1.13 1.19 1.68 1.54 1.65
0.11 0.14 0.15 0.14 0.12 0.12 0.11 0.10 0.10 0.08 0.09 0.09 0.10 0.09 0.10 0.09 0.08 0.07 0.06 0.07 0.06 0.05 0.03 0.03 0.04 0.04 0.05 0.03 0.08 0.04 0.05 0.26 0.00 0.04 0.02 0.01 0.02 0.01 0.00 0.01 0.00 0.01 0.00 0.02 0.05 0.05 0.01 0.09 0.08 0.16 0.14 0.08 0.04 0.09 0.04 0.03 0.02 0.24 0.09 0.11 0.26 0.19 0.23 0.15 0.11 0.14 0.11 0.32 0.24 0.39 0.84 0.69 0.89 0.67 0.58 0.63 1.14 1.50 1.12 1.18 1.15 1.40 0.93 0.99 0.90 1.21 1.31 1.51
0.12 0.14 0.11 0.11 0.11 0.11 0.09 0.11 0.09 0.09 0.11 0.09 0.10 0.07 0.06 0.10 0.07 0.06 0.06 0.07 0.06 0.07 0.03 0.04 0.04 0.03 0.02 0.03 0.05 0.02 0.02 0.02 0.00 0.00 0.01 0.01 0.03 0.00 0.00 0.00 0.02 0.00 0.00 0.06 0.05 0.08 0.02 0.12 0.07 0.08 0.08 0.04 0.06 0.07 0.08 0.10 0.12 0.15 0.22 0.31 0.39 0.11 0.11 0.06 0.24 0.17 0.30 0.51 0.45 0.43 0.96 0.98 1.08 0.78 1.36 0.90 1.11 1.48 1.05 1.38 0.77 0.87 0.97 0.91 1.28 1.10 1.12 1.34
0.12 0.10 0.09 0.09 0.08 0.12 0.12 0.11 0.11 0.09 0.09 0.10 0.08 0.07 0.07 0.09 0.11 0.09 0.06 0.06 0.06 0.04 0.05 0.04 0.05 0.04 0.02 0.05 0.08 0.05 0.02 0.02 0.00 0.00 0.04 0.00 0.05 0.00 0.00 0.00 0.01 0.00 0.02 0.02 0.02 0.11 0.04 0.13 0.12 0.06 0.11 0.14 0.09 0.10 0.06 0.09 0.07 0.29 0.51 0.38 0.12 0.10 0.10 0.23 0.23 0.41 0.79 0.43 0.25 0.36 0.53 0.89 0.72 1.08 1.74 1.17 1.40 1.45 1.94 1.39 1.10 1.21 1.57 1.32 1.67 1.65 1.72 1.82
0.13 0.09 0.09 0.08 0.08 0.06 0.10 0.11 0.09 0.08 0.08 0.06 0.07 0.09 0.09 0.08 0.11 0.06 0.06 0.08 0.06 0.06 0.04 0.04 0.04 0.07 0.04 0.10 0.03 0.10 0.07 0.00 0.00 0.00 0.01 0.01 0.07 0.00 0.01 0.01 0.00 0.03 0.04 0.07 0.11 0.12 0.07 0.12 0.17 0.08 0.18 0.13 0.04 0.07 0.05 0.26 0.44 0.32 0.36 0.73 0.62 0.22 0.30 0.35 0.25 0.40 0.86 0.36 1.02 0.69 0.43 0.69 1.16 1.11 1.47 1.71 1.69 2.38 2.13 1.61 2.43 1.34 2.47 2.28 2.03 1.76 1.81 1.64
0.11 0.11 0.08 0.09 0.07 0.06 0.09 0.08 0.08 0.08 0.06 0.07 0.07 0.07 0.10 0.09 0.08 0.11 0.08 0.08 0.08 0.10 0.06 0.05 0.06 0.04 0.03 0.06 0.01 0.10 0.00 0.00 0.00 0.00 0.00 0.03 0.09 0.02 0.08 0.07 0.09 0.06 0.10 0.05 0.13 0.06 0.10 0.14 0.12 0.03 0.07 0.05 0.04 0.09 0.12 0.17 0.33 0.24 0.29 0.55 0.39 0.18 0.50 0.39 0.61 0.60 0.65 0.49 0.75 1.01 0.49 1.03 0.72 1.33 1.56 3.40 1.79 2.35 1.97 1.71 1.90 1.92 1.69 1.82 1.28 1.47 1.66 1.48
0.19 0.11 0.11 0.10 0.08 0.06 0.07 0.06 0.07 0.08 0.08 0.05 0.08 0.11 0.08 0.06 0.10 0.08 0.11 0.08 0.11 0.08 0.06 0.04 0.07 0.09 0.08 0.04 0.03 0.01 0.00 0.00 0.00 0.00 0.01 0.04 0.13 0.14 0.09 0.03 0.01 0.08 0.09 0.06 0.15 0.07 0.03 0.08 0.08 0.06 0.07 0.17 0.07 0.12 0.04 0.24 0.09 0.13 0.32 0.46 0.16 0.17 0.61 0.42 0.28 0.97 1.81 0.84 1.41 1.97 0.71 0.46 0.41 0.70 1.26 2.44 2.27 2.62 1.90 1.64 1.90 2.13 1.83 1.77 1.64 1.31 1.54 1.90
0.10 0.11 0.19 0.13 0.11 0.08 0.08 0.07 0.07 0.07 0.06 0.08 0.08 0.06 0.10 0.06 0.09 0.07 0.12 0.10 0.12 0.07 0.03 0.01 0.07 0.12 0.04 0.12 0.07 0.03 0.00 0.00 0.02 0.16 0.35 0.30 0.44 0.36 0.28 0.11 0.01 0.03 0.03 0.11 0.07 0.14 0.05 0.05 0.01 0.03 0.28 0.01 0.20 0.08 0.11 0.07 0.27 0.07 0.65 0.50 0.62 0.80 0.33 0.92 0.86 0.75 0.90 0.58 1.38 1.41 1.28 0.82 1.17 1.49 1.49 1.33 1.59 2.32 2.19 1.78 1.49 1.68 1.46 1.29 1.78 1.17 1.15 1.26
0.11 0.12 0.13 0.11 0.09 0.15 0.09 0.07 0.09 0.08 0.06 0.06 0.08 0.08 0.08 0.11 0.12 0.15 0.11 0.07 0.06 0.04 0.04 0.03 0.05 0.09 0.12 0.09 0.00 0.00 0.00 0.00 0.01 0.00 0.00 0.01 0.05 0.20 0.06 0.02 0.02 0.02 0.01 0.12 0.06 0.02 0.03 0.01 0.04 0.14 0.03 0.05 0.03 0.55 0.19 0.13 0.22 0.30 0.67 0.69 0.78 0.60 1.00 0.36 0.54 0.90 0.73 0.93 1.04 0.77 1.52 0.83 0.77 1.09 1.30 2.00 1.89 1.70 1.35 1.24 1.41 1.10 1.09 1.12 1.26 1.26 1.73 1.84
0.13 0.12 0.13 0.13 0.11 0.09 0.08 0.13 0.07 0.09 0.08 0.07 0.07 0.11 0.09 0.14 0.14 0.12 0.07 0.07 0.19 0.11 0.02 0.03 0.11 0.05 0.13 0.02 0.00 0.00 0.00 0.00 0.00 0.00 0.00 0.00 0.06 0.11 0.01 0.00 0.01 0.01 0.01 0.04 0.01 0.01 0.11 0.01 0.04 0.10 0.04 0.05 0.09 0.09 0.31 0.82 0.26 0.94 0.72 0.79 1.48 0.75 0.78 0.70 0.85 0.69 0.80 1.48 1.11 0.86 0.71 1.02 1.00 1.62 1.42 2.48 1.93 1.82 1.26 1.21 1.46 1.35 1.25 1.26 1.59 1.66 1.26 1.44
0.22 0.14 0.15 0.11 0.10 0.12 0.13 0.08 0.07 0.06 0.06 0.06 0.08 0.08 0.08 0.15 0.07 0.05 0.18 0.09 0.06 0.03 0.04 0.07 0.06 0.05 0.09 0.00 0.00 0.00 0.00 0.00 0.00 0.00 0.01 0.00 0.01 0.08 0.03 0.00 0.02 0.00 0.00 0.00 0.01 0.01 0.05 0.02 0.03 0.09 0.11 0.10 0.08 0.21 0.65 0.89 0.74 0.75 0.82 1.11 0.75 1.55 0.92 0.72 0.47 0.75 0.86 0.54 0.66 0.69 1.04 0.80 0.51 0.70 1.14 1.25 1.67 1.95 1.89 2.00 2.64 1.56 1.24 1.86 2.12 1.69 2.00 2.36
0.25 0.16 0.15 0.25 0.11 0.09 0.06 0.11 0.08 0.08 0.05 0.07 0.06 0.04 0.08 0.07 0.08 0.12 0.09 0.05 0.07 0.05 0.09 0.08 0.03 0.02 0.02 0.09 0.01 0.00 0.00 0.01 0.00 0.00 0.00 0.00 0.01 0.05 0.05 0.00 0.00 0.00 0.00 0.01 0.00 0.02 0.06 0.05 0.09 0.04 0.12 0.12 0.17 0.79 0.91 0.70 0.50 0.52 0.96 0.50 0.78 0.52 0.98 0.71 0.51 0.52 0.64 0.37 0.51 0.89 0.72 0.45 0.87 0.59 1.06 1.48 1.70 1.93 1.61 2.02 1.76 1.42 1.48 1.83 1.82 1.71 2.17 1.53
0.25 0.15 0.25 0.18 0.16 0.13 0.09 0.10 0.08 0.13 0.08 0.04 0.05 0.08 0.28 0.17 0.16 0.07 0.08 0.08 0.09 0.06 0.07 0.02 0.09 0.05 0.36 0.00 0.00 0.01 0.01 0.00 0.00 0.00 0.00 0.00 0.01 0.02 0.04 0.00 0.06 0.03 0.00 0.01 0.04 0.01 0.04 0.32 0.04 0.03 0.21 0.48 0.16 0.76 0.97 0.90 0.50 0.81 0.42 0.97 0.94 0.92 0.75 1.07 0.54 0.51 0.46 0.55 0.52 0.53 0.64 0.77 0.58 0.73 0.94 1.84 2.15 1.55 1.51 2.21 2.34 2.31 2.03 1.38 1.88 1.53 1.27 1.74
0.19 0.16 0.17 0.18 0.39 0.44 0.15 0.11 0.10 0.14 0.12 0.23 0.53 0.44 0.44 0.17 0.19 0.14 0.12 0.11 0.05 0.05 0.05 0.11 0.09 0.06 0.01 0.01 0.09 0.01 0.00 0.00 0.00 0.00 0.00 0.00 0.01 0.02 0.03 0.11 0.16 0.10 0.04 0.03 0.05 0.10 0.04 0.32 0.01 0.85 0.35 0.51 0.26 0.87 0.52 0.79 0.80 0.73 0.84 0.46 0.62 0.29 0.63 0.80 0.86 0.61 0.17 0.23 0.47 0.31 0.35 0.38 0.65 0.55 1.31 1.62 1.18 1.71 1.87 1.79 1.54 1.36 1.04 0.82 0.73 0.73 1.15 1.04
0.28 0.20 0.15 0.11 0.10 0.22 0.27 0.50 0.87 0.93 0.57 0.20 0.09 0.12 0.11 0.12 0.08 0.09 0.08 0.14 0.15 0.26 1.06 0.24 0.42 0.44 0.27 0.02 0.02 0.00 0.00 0.00 0.00 0.00 0.00 0.00 0.00 0.00 0.04 0.04 0.05 0.22 0.26 0.15 0.06 0.07 0.06 0.18 0.17 0.45 0.81 0.24 0.27 0.43 0.41 0.38 0.47 0.45 0.58 0.34 0.72 0.82 0.42 0.60 0.53 0.49 0.44 0.49 0.41 0.33 0.49 0.32 0.31 0.44 0.93 2.65 2.04 1.25 1.34 1.23 1.45 0.63 0.74 0.86 0.93 1.20 1.01 1.01
0.16 0.21 0.19 0.18 0.24 0.13 0.22 0.12 0.11 0.14 0.15 0.17 0.19 0.13 0.14 0.23 0.27 0.53 0.49 0.19 0.16 0.09 0.07 0.02 0.02 0.00 0.00 0.00 0.03 0.00 0.00 0.00 0.00 0.00 0.00 0.00 0.00 0.01 0.05 0.04 0.05 0.08 0.06 0.29 0.15 0.05 0.04 0.26 0.58 0.58 0.52 0.26 0.16 0.10 0.13 0.17 0.20 0.55 0.48 0.72 0.77 0.40 0.37 0.33 0.31 0.32 0.33 0.48 0.54 0.48 0.22 0.31 0.34 0.39 1.08 2.29 1.88 1.61 1.76 2.00 1.18 1.13 0.79 1.39 0.90 0.95 1.06 1.36
0.27 0.14 0.19 0.21 0.15 0.25 0.16 0.19 0.16 0.09 0.11 0.19 0.24 0.31 0.44 0.19 0.46 0.34 0.16 0.11 0.02 0.03 0.13 0.04 0.12 0.01 0.04 0.00 0.00 0.00 0.00 0.00 0.00 0.00 0.00 0.00 0.00 0.07 0.18 0.03 0.08 0.07 0.13 0.04 0.25 0.04 0.12 0.65 0.39 0.27 0.25 0.26 0.13 0.14 0.09 0.12 0.13 0.28 0.56 0.64 0.66 0.72 0.60 0.61 0.43 0.16 0.39 0.73 0.57 0.53 0.29 0.28 0.31 0.57 1.27 0.75 1.61 1.43 1.30 2.27 2.37 3.03 2.20 1.61 2.04 1.89 1.77 1.55
0.34 0.26 0.25 0.25 0.41 0.25 0.27 0.17 0.13 0.11 0.21 0.24 0.40 0.27 0.16 0.06 0.07 0.04 0.25 0.20 0.02 0.10 0.02 0.03 0.00 0.00 0.00 0.00 0.00 0.00 0.00 0.00 0.00 0.00 0.00 0.00 0.00 0.02 0.16 0.13 0.17 0.36 0.02 0.01 0.03 0.13 0.18 0.69 0.33 0.19 0.27 0.24 0.11 0.15 0.24 0.09 0.28 0.40 0.82 0.64 0.74 0.47 0.28 0.26 0.38 0.15 0.27 0.57 0.54 0.31 0.41 0.45 0.54 0.48 0.77 0.77 0.89 1.85 2.15 2.59 2.92 3.05 2.16 2.64 1.88 2.11 1.63 1.29
0.29 0.18 0.30 0.21 0.30 0.36 0.25 0.25 0.19 0.22 0.49 0.38 0.27 0.05 0.19 0.03 0.00 0.15 0.10 0.23 0.20 0.03 0.03 0.01 0.01 0.00 0.00 0.00 0.00 0.00 0.00 0.01 0.01 0.00 0.00 0.01 0.01 0.00 0.05 0.18 0.03 0.19 0.15 0.02 0.30 0.30 0.75 0.30 0.20 0.09 0.25 0.24 0.15 0.10 0.20 0.08 0.08 0.47 0.29 0.62 1.11 0.30 0.70 0.73 0.25 0.13 0.08 0.48 0.52 0.77 0.60 0.57 0.76 0.62 0.72 0.70 0.61 1.09 2.19 2.41 2.66 4.54 3.59 2.50 2.73 1.75 2.27 1.73
0.24 0.33 0.22 0.33 0.27 0.25 0.27 0.35 0.31 0.40 0.28 0.23 0.13 0.09 0.10 0.03 0.02 0.09 0.19 0.53 0.12 0.04 0.03 0.01 0.00 0.00 0.01 0.01 0.01 0.00 0.00 0.01 0.00 0.02 0.00 0.01 0.04 0.00 0.03 0.06 0.06 0.04 0.24 0.04 0.10 0.09 0.34 0.20 0.09 0.06 0.14 0.15 0.12 0.09 0.14 0.56 0.52 0.35 0.38 0.79 0.44 0.22 0.29 0.77 0.67 0.33 0.18 0.13 0.25 0.56 0.88 0.80 0.41 0.70 0.54 0.72 0.64 0.91 0.75 0.93 1.19 1.23 1.47 1.07 1.22 1.05 1.45 1.66
0.35 0.30 0.43 0.31 0.32 0.32 0.32 0.47 0.30 0.31 0.29 0.38 0.20 0.11 0.09 0.08 0.02 0.12 0.16 0.28 0.10 0.01 0.00 0.00 0.04 0.00 0.01 0.00 0.00 0.00 0.00 0.00 0.00 0.00 0.01 0.00 0.05 0.03 0.03 0.00 0.08 0.17 0.22 0.12 0.01 0.07 0.23 0.11 0.02 0.07 0.03 0.06 0.12 0.16 0.06 0.18 0.76 0.46 0.16 0.39 0.60 0.30 0.45 0.42 0.29 0.44 0.45 0.62 0.26 0.28 1.12 1.37 0.75 0.65 0.62 0.55 0.47 0.38 0.54 0.83 0.93 0.90 0.90 0.60 1.05 1.01 0.60 0.54
0.33 0.29 0.28 0.29 0.28 0.43 0.76 0.52 0.50 0.50 0.35 0.50 0.29 0.16 0.08 0.06 0.05 0.09 0.28 0.47 0.34 0.06 0.00 0.31 0.17 0.21 0.00 0.01 0.00 0.00 0.00 0.01 0.00 0.02 0.00 0.00 0.01 0.09 0.04 0.03 0.10 0.42 0.33 0.03 0.15 0.17 0.16 0.03 0.03 0.02 0.02 0.08 0.06 0.24 0.08 0.11 0.69 0.74 0.57 0.08 0.18 0.34 0.30 0.91 0.70 0.86 1.28 1.15 0.87 0.28 1.65 1.45 0.83 0.75 0.67 0.50 0.42 0.53 0.68 0.84 1.03 1.05 0.66 0.69 0.90 1.08 1.03 0.79
0.22 0.31 0.37 0.29 0.37 0.53 0.34 0.62 0.63 0.41 0.65 0.51 0.38 0.34 0.10 0.21 0.18 0.18 0.85 0.49 0.60 0.07 0.46 0.01 0.23 0.06 0.00 0.06 0.00 0.00 0.71 0.09 0.00 0.00 0.03 0.00 0.02 0.01 0.16 0.04 0.06 0.03 0.10 0.12 0.10 0.28 0.05 0.03 0.06 0.02 0.03 0.05 0.12 0.32 0.13 0.15 0.55 0.89 0.08 0.17 0.21 0.30 0.49 0.72 0.69 0.80 1.03 0.24 0.28 0.09 0.32 0.99 1.08 0.72 0.20 0.38 0.45 0.36 0.70 0.76 0.50 0.66 0.52 0.49 0.71 1.23 1.20 0.51
0.29 0.27 0.27 0.22 0.46 0.50 0.57 0.74 0.48 0.55 0.47 0.45 0.54 0.21 0.24 0.17 0.14 0.64 0.68 0.32 0.45 0.00 0.17 0.06 0.11 0.00 0.01 0.00 0.00 0.07 0.07 0.01 0.24 0.26 0.00 0.00 0.00 0.03 0.12 0.21 0.21 0.15 0.15 0.08 0.67 0.07 0.02 0.02 0.03 0.01 0.03 0.08 0.52 0.21 0.07 0.09 0.33 0.44 0.16 0.16 0.26 0.25 0.30 0.58 0.94 0.98 0.58 0.48 0.92 0.53 0.25 0.72 1.20 0.79 0.20 0.59 0.61 0.51 0.60 0.43 0.36 0.46 0.63 0.78 0.81 0.86 0.77 0.95
0.44 0.27 0.22 0.38 0.55 0.34 0.43 0.73 0.55 0.75 0.46 0.72 0.14 0.28 0.52 0.38 0.16 0.89 0.90 0.55 0.29 0.19 0.11 0.58 0.03 0.01 0.01 0.01 0.04 0.00 0.01 0.01 0.17 0.04 0.01 0.03 0.09 0.21 0.70 0.19 0.14 0.07 0.04 0.03 0.22 0.08 0.09 0.05 0.09 0.07 0.10 0.35 0.12 0.07 0.06 0.02 0.31 0.05 0.23 0.21 0.20 0.15 0.30 0.45 0.74 1.07 0.73 0.66 1.10 0.85 0.39 1.07 1.55 0.78 0.72 0.50 0.63 0.46 0.44 0.42 0.62 0.71 1.17 0.65 0.77 0.45 0.48 0.58
0.38 0.75 0.36 0.77 0.82 0.74 0.63 0.96 0.38 0.46 0.36 0.29 0.59 0.57 0.59 0.40 1.35 1.13 0.87 0.73 0.11 0.40 0.11 0.09 0.14 0.15 0.01 0.05 0.07 0.10 0.13 0.09 0.02 0.08 0.03 0.06 0.08 0.09 0.06 0.09 0.14 0.17 0.21 0.10 0.15 0.09 0.10 0.08 0.02 0.03 0.22 0.10 0.05 0.05 0.04 0.06 0.06 0.05 0.08 0.27 0.33 0.39 0.49 0.51 0.45 1.03 0.82 0.96 1.01 0.35 0.27 0.32 1.36 1.25 1.10 0.88 0.36 0.31 0.35 0.34 0.37 0.39 0.48 0.56 0.65 1.03 0.90 0.37
0.20 0.47 0.76 0.40 0.93 0.56 0.48 0.62 0.54 0.45 0.31 0.28 0.29 0.41 0.49 0.62 1.07 0.65 0.39 0.63 0.08 0.40 0.10 0.06 0.31 0.05 0.19 0.20 0.22 0.09 0.08 0.04 0.08 0.01 0.07 0.01 0.16 0.04 0.07 0.07 0.03 0.05 0.08 0.06 0.19 0.09 0.08 0.08 0.14 0.04 0.03 0.02 0.03 0.05 0.07 0.10 0.13 0.04 0.29 0.40 0.51 0.75 0.79 0.67 0.81 0.58 1.08 1.30 0.29 0.24 0.43 0.45 1.08 2.16 0.81 0.28 0.17 0.25 0.31 0.19 0.27 0.22 0.27 0.41 0.30 0.37 0.27 0.33
0.18 0.27 0.29 0.37 0.42 0.43 0.48 0.67 0.48 0.36 0.33 0.53 0.42 0.53 0.51 1.06 0.79 0.83 0.54 0.03 0.88 0.64 0.46 0.23 0.14 0.15 0.18 0.13 0.14 0.08 0.16 0.22 0.20 0.07 0.11 0.03 0.12 0.40 0.15 0.50 0.18 0.52 0.44 0.28 0.55 0.07 0.17 0.19 0.08 0.06 0.04 0.05 0.03 0.16 0.15 0.07 0.07 0.14 0.20 0.45 1.32 1.66 0.87 0.99 1.52 0.92 0.75 1.01 0.52 0.43 0.20 0.66 1.05 0.84 1.12 0.36 0.26 0.22 0.16 0.34 0.26 0.15 0.15 0.16 0.13 0.15 0.60 0.35
0.12 0.22 0.16 0.10 0.09 0.25 0.16 0.25 0.25 0.27 0.61 0.36 1.04 0.75 0.76 0.73 0.19 0.57 0.72 0.32 1.01 0.53 0.94 0.37 0.39 0.20 0.20 0.16 0.16 0.16 0.13 0.27 0.11 0.18 0.07 0.17 0.14 0.10 0.09 0.14 0.13 0.20 0.78 0.31 0.24 0.33 0.26 0.12 0.04 0.09 0.01 0.02 0.09 0.86 0.32 0.30 0.38 0.34 0.48 0.73 1.05 1.10 0.75 0.37 0.75 0.47 0.84 0.40 0.27 0.62 0.09 0.87 1.09 0.74 0.56 0.67 0.35 0.19 0.12 0.12 0.19 0.09 0.08 0.10 0.12 0.13 0.22 0.27
0.03 0.03 0.08 0.07 0.09 0.05 0.10 0.18 0.77 0.50 0.29 1.04 0.98 0.79 1.82 0.53 0.51 0.20 0.55 0.38 0.97 0.26 0.43 0.63 0.31 0.18 0.50 0.36 0.61 0.56 0.36 0.05 0.22 0.20 0.03 0.12 0.05 0.33 0.23 0.03 0.03 0.08 0.24 0.26 0.66 0.54 0.65 0.80 0.38 0.07 0.54 0.00 0.02 0.10 0.23 0.83 0.25 0.69 0.27 0.51 0.90 0.78 0.90 0.51 0.81 0.84 0.86 0.98 0.51 0.20 0.44 1.01 0.81 3.62 0.64 0.20 0.23 0.16 0.07 0.17 0.15 0.14 0.11 0.21 0.12 0.23 0.29 0.32
0.02 0.03 0.06 0.12 0.11 0.07 0.25 0.10 0.39 0.40 0.63 1.39 0.76 0.78 0.47 0.33 0.67 0.79 0.77 0.75 0.59 0.31 0.48 0.29 0.42 0.19 0.68 0.28 0.43 0.15 0.21 0.60 0.10 0.09 0.11 0.07 0.28 0.19 0.18 0.24 0.09 0.02 0.19 0.38 0.27 0.30 0.29 0.55 0.15 0.03 0.07 0.01 0.05 0.03 0.01 0.10 0.29 0.11 0.27 0.31 0.66 1.01 0.16 0.96 0.68 0.59 0.80 0.60 0.73 0.27 0.46 0.97 1.45 1.26 1.08 0.84 0.14 0.07 0.12 0.13 0.07 0.12 0.13 0.12 0.21 0.20 0.28 0.30
0.02 0.09 0.10 0.25 0.16 0.08 0.06 0.17 0.49 0.28 0.30 0.46 0.82 0.63 0.73 0.63 1.49 0.80 1.30 0.66 0.54 1.08 0.59 0.35 0.46 0.43 0.40 0.61 0.13 0.22 0.08 0.39 0.22 0.08 0.14 0.14 0.16 0.32 0.05 0.09 0.10 0.02 0.23 0.19 0.26 0.52 0.22 0.87 0.03 0.04 0.01 0.05 0.11 0.01 0.05 0.05 2.07 0.83 0.24 0.84 0.54 0.10 0.19 0.43 0.15 0.07 0.05 0.19 0.53 0.24 0.82 0.89 0.29 0.62 0.79 0.68 0.11 0.23 0.18 0.14 0.09 0.31 0.43 0.55 0.67 0.91 0.97 0.95
0.13 0.23 0.35 0.31 0.26 0.17 0.11 0.20 0.29 0.37 0.23 0.48 0.65 0.69 0.49 0.66 0.80 0.84 0.83 0.84 0.96 0.83 0.77 0.98 0.85 0.67 0.47 0.66 0.46 0.10 0.30 0.13 0.29 0.09 0.69 0.19 0.43 0.10 0.07 0.09 0.01 0.04 0.01 0.01 0.47 0.03 0.36 0.77 0.01 0.02 0.13 0.02 0.01 0.01 0.04 0.05 0.01 0.21 0.93 0.30 0.13 0.06 0.14 0.19 0.87 0.28 0.21 0.69 0.42 0.37 0.81 1.38 0.55 2.72 1.01 0.71 0.52 0.51 0.34 0.33 0.50 0.50 0.57 0.67 0.82 0.81 0.91 1.05
0.23 0.34 0.40 0.33 0.29 0.15 0.14 0.21 0.28 0.49 0.46 0.40 0.50 0.36 0.44 1.00 0.56 0.90 0.74 0.48 0.74 0.85 1.02 1.23 1.06 0.40 0.65 0.68 0.61 0.15 0.22 0.43 0.50 0.26 0.71 0.23 0.83 0.04 0.08 0.13 0.04 0.04 0.02 0.03 0.14 0.40 0.12 0.54 0.19 0.08 0.04 0.03 0.01 0.01 0.05 0.03 0.05 0.15 0.54 0.12 0.44 1.38 1.63 0.29 0.11 0.46 0.68 0.35 0.38 0.43 0.48 0.79 0.61 1.71 0.73 1.31 1.03 0.62 0.55 0.40 0.24 0.27 0.19 0.42 0.77 1.02 0.98 0.61
0.37 0.40 0.82 0.28 0.15 0.12 0.18 0.27 0.36 0.78 0.70 0.47 0.67 0.51 0.45 0.75 0.50 0.77 0.59 0.50 0.87 0.93 0.93 1.43 1.20 0.71 0.82 0.77 0.59 0.24 0.20 0.52 0.25 0.99 0.70 0.60 0.92 0.79 0.15 0.03 0.09 0.02 0.03 0.03 0.15 0.15 0.06 0.35 0.43 0.02 0.04 0.17 0.03 0.07 0.52 0.26 0.06 0.04 0.05 0.41 0.24 0.25 0.53 0.85 0.41 0.61 0.47 0.86 0.26 0.86 0.64 1.35 0.75 1.08 0.69 0.84 0.62 0.72 0.61 0.41 0.50 0.45 0.55 0.38 0.40 0.32 0.45 0.45
0.59 0.58 0.87 0.24 0.09 0.19 0.17 0.22 0.38 0.80 0.60 0.47 0.55 0.66 0.62 0.65 0.65 0.60 0.91 0.53 1.33 0.93 1.51 0.90 0.57 1.00 0.39 0.64 0.25 0.58 0.13 0.26 0.28 0.96 0.55 1.18 0.72 0.27 0.39 0.04 0.33 0.09 0.03 0.03 0.14 0.18 0.45 0.09 0.70 0.27 0.05 0.07 0.50 0.11 0.53 0.39 0.43 0.26 0.16 0.51 0.39 0.24 0.26 0.17 0.39 0.36 0.65 0.49 0.55 0.45 0.73 1.39 1.03 0.61 0.48 0.83 0.42 0.34 0.66 0.61 0.57 0.65 0.65 0.77 0.69 0.39 0.43 0.47
0.53 1.06 1.24 0.22 0.19 0.22 0.23 0.48 0.79 0.59 0.40 0.26 0.30 0.62 0.35 0.77 0.77 0.89 0.68 0.53 0.75 0.68 0.98 0.62 0.60 0.86 0.57 0.55 0.62 0.29 0.35 0.32 0.20 0.62 0.39 0.58 0.53 1.11 0.19 0.15 0.06 0.43 0.06 0.11 0.27 0.24 0.23 0.36 0.46 0.26 0.57 0.23 0.30 0.08 0.17 0.22 0.20 0.39 0.28 0.61 0.34 0.63 0.88 0.72 0.99 0.17 0.24 0.47 0.60 0.40 1.06 1.16 0.93 0.48 1.18 0.60 0.28 0.67 0.69 0.76 0.78 0.66 0.60 0.43 0.39 0.54 0.43 0.58
0.60 1.22 1.44 0.37 0.34 0.25 0.42 1.07 0.66 0.40 0.44 0.64 0.73 0.45 0.72 0.50 0.60 0.52 0.63 0.37 0.52 0.78 0.65 0.43 0.33 0.61 0.56 0.58 0.57 0.26 0.33 0.26 0.34 0.43 0.43 0.69 0.37 0.62 0.59 0.03 0.07 0.08 0.29 0.53 0.61 0.37 0.29 0.61 0.71 0.43 0.55 0.88 0.33 0.20 0.11 0.35 0.20 0.30 0.36 0.87 0.44 0.96 0.49 0.94 0.73 0.85 0.33 0.58 0.22 0.68 0.54 1.48 0.84 0.92 0.53 0.65 0.31 0.34 0.75 0.82 1.27 0.69 0.75 0.39 0.27 0.28 0.66 0.54
0.90 2.04 0.85 0.53 0.43 0.46 0.99 1.09 0.55 0.58 0.71 0.43 0.23 0.34 0.37 0.51 0.44 0.34 0.64 0.63 0.83 0.62 0.83 0.51 0.51 0.37 0.56 0.58 0.45 0.43 0.33 0.34 0.27 0.62 0.23 0.27 0.47 0.28 0.09 0.10 0.17 0.11 0.21 0.63 0.19 0.71 0.30 0.51 0.73 0.55 0.27 0.23 0.18 0.12 0.15 0.64 0.23 0.27 0.33 0.27 0.46 0.88 0.91 0.75 0.62 0.84 0.79 0.73 0.92 1.02 0.62 1.64 1.42 1.26 0.73 0.59 0.49 0.38 0.45 1.05 0.72 1.02 0.84 0.61 0.40 0.30 0.25 0.37
1.42 1.39 0.70 0.93 0.83 0.73 1.27 0.91 0.74 0.49 0.50 0.30 0.39 0.76 0.40 0.61 0.46 0.51 0.51 0.72 0.97 0.76 1.02 0.51 0.41 0.41 0.73 0.56 0.48 0.26 0.31 0.51 0.21 0.29 0.42 0.20 0.62 0.18 0.26 0.39 0.12 0.31 0.38 0.88 0.69 0.83 0.89 1.28 0.68 1.29 0.76 0.85 0.64 0.41 0.73 0.42 0.36 0.36 0.71 0.60 0.34 0.60 0.45 0.68 0.58 0.79 0.75 0.67 0.83 0.90 1.28 1.34 1.42 0.85 0.58 0.71 0.49 0.85 0.95 0.94 1.03 1.10 1.11 0.62 0.40 0.32 0.18 0.24
2.19 0.68 0.67 0.87 0.98 1.22 1.43 1.24 1.06 0.68 0.63 0.66 0.61 0.75 0.76 0.53 0.29 0.30 0.37 0.71 0.58 0.73 0.72 0.59 0.45 0.47 0.74 0.61 0.27 0.14 0.19 0.26 0.77 0.52 0.18 0.35 0.57 0.15 0.26 0.44 0.49 0.47 0.39 0.44 0.31 0.53 0.62 1.13 1.16 1.48 1.43 1.44 1.62 1.65 1.88 1.50 1.09 0.64 0.38 0.34 0.29 0.31 0.60 0.69 0.59 0.86 0.70 0.70 0.70 0.97 0.91 1.09 1.14 0.62 0.74 1.09 1.02 1.11 1.24 1.10 0.90 1.05 0.95 0.76 1.06 0.65 0.76 0.53
1.22 0.66 0.48 1.36 1.36 1.64 1.13 1.03 1.24 1.25 1.01 0.97 0.84 0.68 0.60 0.61 0.30 0.47 0.17 0.66 0.33 0.83 0.73 0.60 0.49 0.49 0.61 0.68 0.35 0.36 0.35 0.21 0.51 0.59 0.31 0.55 0.20 0.07 0.11 0.09 0.12 0.19 0.14 0.18 0.28 0.43 0.75 0.88 0.87 1.05 1.41 1.76 1.61 1.34 1.42 0.64 0.84 0.86 0.74 0.43 0.40 0.39 0.58 0.60 0.66 0.74 1.15 1.02 0.78 1.20 1.06 1.15 0.92 0.79 0.62 0.59 0.68 0.71 0.74 0.64 0.91 1.03 1.10 0.67 0.78 1.25 0.90 1.10
0.97 0.71 0.57 0.96 1.40 1.69 1.56 1.11 1.43 1.16 1.59 1.01 0.98 0.74 0.79 0.57 0.59 1.10 0.26 0.60 0.18 0.81 1.09 0.78 0.51 0.54 0.73 0.46 0.49 0.37 0.34 0.27 0.44 0.36 0.43 0.39 0.24 0.16 0.03 0.06 0.14 0.19 0.17 0.24 0.21 0.48 0.64 0.69 0.92 1.54 1.53 1.16 1.05 1.19 1.15 0.80 0.87 0.57 0.42 0.56 0.50 0.40 0.71 0.61 0.63 1.08 0.90 0.72 1.00 0.80 0.76 0.75 1.07 0.70 0.85 0.76 0.63 0.52 0.51 0.50 0.35 0.45 0.68 1.04 1.42 0.66 0.56 0.45
0.98 0.42 0.58 1.24 1.79 1.67 2.09 1.83 1.50 1.66 1.39 1.03 0.84 0.55 0.74 0.59 0.55 0.68 0.21 0.13 0.31 0.60 1.47 0.89 0.95 0.92 1.13 0.81 0.66 0.43 0.24 0.30 0.35 0.37 0.48 0.28 0.32 0.15 0.10 0.06 0.13 0.31 0.29 0.34 0.20 0.44 1.09 0.76 0.90 0.85 1.10 1.18 0.82 0.80 0.80 1.01 0.66 0.47 0.36 0.31 0.90 0.58 0.47 0.69 0.35 0.69 0.93 0.95 1.25 0.97 1.04 0.85 1.01 1.08 0.96 1.07 0.66 0.57 0.73 0.72 0.65 0.62 0.49 0.51 0.80 0.88 0.94 0.94
0.99 0.21 0.80 0.70 1.57 1.53 1.80 2.08 1.90 2.04 1.59 0.93 0.77 0.69 0.73 0.77 0.63 0.40 0.45 0.59 0.66 0.63 0.86 0.65 0.82 1.19 1.13 1.03 0.50 0.45 0.32 0.76 0.28 0.62 0.59 0.69 0.31 0.26 0.47 0.19 0.29 0.21 0.42 0.28 0.32 0.36 0.49 0.52 1.38 0.69 0.90 0.82 0.81 0.73 0.68 0.66 0.60 0.54 0.31 0.30 0.43 0.34 0.49 0.45 0.51 0.69 0.80 0.72 0.65 0.65 0.49 0.48 0.74 0.82 0.80 1.03 0.66 0.53 0.54 0.38 0.34 0.27 0.31 0.27 0.32 0.33 0.68 0.82
0.80 0.79 0.58 0.50 0.91 0.95 1.28 1.46 1.59 1.27 1.15 0.75 0.82 0.66 0.89 0.75 0.73 0.76 0.48 0.51 0.50 0.54 0.28 0.71 0.70 0.80 1.64 1.20 0.94 0.81 0.62 0.98 0.95 0.67 0.57 0.62 0.56 0.37 0.44 0.30 0.88 0.46 0.47 0.90 0.62 0.83 0.47 0.78 0.27 0.74 0.91 0.94 1.09 1.04 0.63 0.46 0.53 0.70 0.38 0.42 0.40 0.39 0.37 0.42 0.38 0.53 0.45 0.43 0.50 0.36 0.61 0.59 0.94 0.63 0.76 1.03 0.53 0.30 0.35 0.57 0.37 0.29 0.28 0.30 0.30 0.33 0.41 0.44
0.88 1.06 0.83 1.56 0.90 0.53 0.89 1.31 1.65 1.24 1.18 0.82 1.17 0.70 0.72 0.71 0.52 0.64 0.59 0.65 0.73 0.68 0.71 0.50 0.52 1.42 0.96 0.97 1.18 1.58 1.09 0.50 0.92 0.43 0.97 0.86 0.59 0.40 0.45 0.58 0.09 0.39 0.58 0.55 0.43 0.90 0.70 0.72 0.41 0.69 1.13 1.07 0.81 0.98 1.55 0.91 0.63 0.84 0.96 0.71 0.70 0.56 0.68 0.72 0.75 0.85 0.71 0.94 1.03 0.89 0.78 1.33 1.08 0.43 0.89 0.60 0.57 0.53 0.60 0.71 0.78 0.83 0.62 0.73 0.61 0.63 0.41 0.37
0.89 0.78 0.67 1.19 0.97 0.29 1.15 1.14 1.44 1.36 0.92 0.94 1.00 1.08 0.75 0.49 1.12 0.29 0.71 0.34 0.47 0.86 0.66 0.25 0.78 1.07 0.52 1.33 1.68 1.10 0.46 0.51 0.51 0.20 0.38 0.29 0.29 0.73 0.04 0.24 0.09 0.22 0.18 0.44 0.48 0.76 0.92 0.84 0.87 0.96 0.92 0.76 0.91 0.76 1.07 0.99 0.97 1.34 1.10 0.96 0.65 0.79 0.77 0.64 0.66 0.59 0.92 1.00 1.26 1.11 1.84 1.33 0.84 0.56 0.60 0.85 0.71 0.74 1.02 0.75 1.08 0.83 0.67 0.71 0.61 0.49 0.46 0.39